Weather reports worldwide

Advertisment
Lossiemouth, United Kingdom (3068): temperature & dewpoint: 17.03.2019 09:00:00 - 23.03.2019 09:00:00 (GMT)Lossiemouth, United Kingdom (3068): wind speed & gusts: 17.03.2019 09:00:00 - 23.03.2019 09:00:00 (GMT)Lossiemouth, United Kingdom (3068): wind direction: 17.03.2019 09:00:00 - 23.03.2019 09:00:00 (GMT)Lossiemouth, United Kingdom (3068): reduced air pressure: 17.03.2019 09:00:00 - 23.03.2019 09:00:00 (GMT)Lossiemouth, United Kingdom (3068): visibility: 17.03.2019 09:00:00 - 23.03.2019 09:00:00 (GMT)Lossiemouth, United Kingdom (3068): precipitation: 17.03.2019 09:00:00 - 23.03.2019 09:00:00 (GMT)
Date & Time tt [°C] td [°C] ff [km/h] ff [kn] fx [km/h] fx [kn] dd ppp [hPa] vv [km] rr [mm]
23.03.2019 09:00:00 6,0 0,4 41 22 55 30 W 1024,5 10 0,0
23.03.2019 08:00:00 4,7 0,6 31 17 57 31 WSW 1023,8 10 0,0
23.03.2019 07:00:00 3,9 0,2 37 20 59 32 WSW 1022,5 10 0,0
23.03.2019 06:00:00 3,3 0,4 35 19 59 32 WSW 1021,5 10 0,0
23.03.2019 05:00:00 3,6 -0,6 42 23 59 32 WSW 1020,9 10 0,0
23.03.2019 04:00:00 3,7 -0,8 34 18 46 25 WSW 1020,3 10 0,0
23.03.2019 03:00:00 3,2 -1,4 31 17 - - WSW 1020,0 10 0,0
23.03.2019 02:00:00 3,6 -0,9 31 17 48 26 WSW 1019,7 10 0,0
23.03.2019 01:00:00 3,7 -1,1 28 15 48 26 WSW 1019,6 10 0,0
23.03.2019 00:00:00 3,8 -0,1 34 18 63 34 W 1018,8 10 0,0
22.03.2019 23:00:00 4,5 0,0 34 18 61 33 WSW 1018,0 10 0,0
22.03.2019 22:00:00 5,1 -0,3 41 22 65 35 WSW 1017,2 10 0,0
22.03.2019 21:00:00 4,6 1,3 26 14 - - WSW 1016,4 10 0,0
22.03.2019 20:00:00 4,9 2,3 37 20 - - WSW 1015,6 10 0,0
22.03.2019 19:00:00 7,0 0,3 44 24 - - W 1014,4 10 0,0
22.03.2019 18:00:00 8,4 0,4 35 19 - - WSW 1012,8 10 0,0
22.03.2019 17:00:00 9,4 1,3 34 18 63 34 WSW 1012,9 10 0,0
22.03.2019 16:00:00 11,4 3,7 28 15 72 39 W 1012,1 10 0,0
22.03.2019 15:00:00 11,7 2,8 44 24 68 37 WSW 1011,3 10 0,0
22.03.2019 14:00:00 11,9 4,5 41 22 54 29 WSW 1011,2 10 0,0
22.03.2019 13:00:00 11,9 7,6 28 15 68 37 W 1010,8 10 0,0
22.03.2019 12:00:00 13,2 6,6 39 21 67 36 SW 1010,0 10 0,0
22.03.2019 11:00:00 13,2 6,9 35 19 63 34 SSW 1010,2 10 0,0
22.03.2019 10:00:00 13,2 6,3 37 20 63 34 SSW 1010,7 10 0,0
22.03.2019 09:00:00 12,0 5,5 31 17 61 33 SSW 1011,1 10 0,0
22.03.2019 08:00:00 11,7 5,3 31 17 50 27 SSW 1011,8 10 0,0
22.03.2019 07:00:00 11,2 5,4 29 16 59 32 SSW 1012,7 10 0,0
22.03.2019 06:00:00 11,2 5,6 44 24 63 34 SSW 1013,0 10 0,0
22.03.2019 05:00:00 10,5 5,7 29 16 54 29 SW 1014,3 10 0,0
22.03.2019 04:00:00 10,2 6,1 16 9 - - SW 1015,2 10 0,0
22.03.2019 03:00:00 9,6 5,8 4 2 - - W 1016,3 10 0,0
22.03.2019 02:00:00 10,8 6,0 18 10 - - S 1016,9 10 0,0
22.03.2019 01:00:00 11,7 7,4 15 8 - - SSW 1018,6 10 0,0
22.03.2019 00:00:00 10,8 7,4 5 3 - - ESE 1019,9 10 0,0
21.03.2019 23:00:00 10,9 7,2 11 6 - - E 1020,9 10 0,0
21.03.2019 22:00:00 10,1 6,7 11 6 - - SSE 1022,1 10 0,0
21.03.2019 21:00:00 9,7 7,2 9 5 - - SE 1023,8 10 0,0
21.03.2019 20:00:00 9,7 7,4 15 8 - - SE 1024,5 10 0,0
21.03.2019 19:00:00 10,1 7,9 21 11 - - SE 1025,1 10 0,0
21.03.2019 18:00:00 10,3 7,9 22 12 - - SE 1025,4 10 0,0
21.03.2019 17:00:00 8,7 5,0 16 9 - - E 1026,7 10 0,0
21.03.2019 16:00:00 9,8 5,3 15 8 - - E 1027,8 10 0,0
21.03.2019 15:00:00 9,4 4,3 13 7 - - E 1027,8 10 0,0
21.03.2019 14:00:00 9,8 6,1 13 7 - - ENE 1027,4 10 0,0
21.03.2019 13:00:00 9,3 6,2 13 7 - - E 1027,3 10 0,0
21.03.2019 12:00:00 9,0 7,1 9 5 - - SE 1027,8 10 0,0
21.03.2019 11:00:00 8,2 6,8 9 5 - - ESE 1027,5 8 0,2
21.03.2019 10:00:00 7,5 6,5 11 6 - - NE 1026,8 4,0 0,0
21.03.2019 09:00:00 8,2 7,8 8 4 - - NNE 1025,7 10 0,4
21.03.2019 08:00:00 9,0 8,4 15 8 - - WNW 1024,2 4,0 0,4
21.03.2019 07:00:00 8,8 8,4 22 12 - - WNW 1022,7 3,6 1,6
21.03.2019 06:00:00 10,5 9,5 24 13 - - WSW 1020,9 4,5 0,4
21.03.2019 05:00:00 11,1 9,1 29 16 46 25 WSW 1019,9 10 0,0
21.03.2019 04:00:00 12,0 8,4 31 17 46 25 WSW 1019,2 10 0,0
21.03.2019 03:00:00 12,2 8,3 29 16 48 26 WSW 1018,6 10 0,0
21.03.2019 02:00:00 12,3 8,1 28 15 - - SW 1018,4 10 0,0
21.03.2019 01:00:00 12,0 8,0 26 14 - - WSW 1018,6 40 0,0
21.03.2019 00:00:00 12,2 8,0 29 16 48 26 SW 1018,3 10 0,0
20.03.2019 23:00:00 12,5 7,7 26 14 50 27 SW 1018,0 35 0,0
20.03.2019 22:00:00 12,8 7,5 31 17 46 25 SSW 1017,9 10 0,0
20.03.2019 21:00:00 12,8 8,0 28 15 54 29 SW 1017,7 10 0,0
20.03.2019 20:00:00 12,7 8,5 29 16 52 28 WSW 1017,6 40 0,0
20.03.2019 19:00:00 13,1 8,3 31 17 - - SW 1017,5 10 0,0
20.03.2019 18:00:00 14,2 7,9 28 15 57 31 SW 1017,7 10 0,0
20.03.2019 17:00:00 14,1 7,9 44 24 57 31 SW 1018,1 10 0,0
20.03.2019 16:00:00 15,8 7,9 35 19 55 30 SW 1018,7 10 0,0
20.03.2019 15:00:00 15,0 8,0 22 12 50 27 SW 1019,3 10 0,0
20.03.2019 14:00:00 14,2 7,5 28 15 - - SW 1020,2 10 0,0
20.03.2019 13:00:00 13,1 6,9 28 15 - - WSW 1021,7 10 0,0
20.03.2019 12:00:00 12,5 5,9 31 17 - - WSW 1022,2 10 0,0
20.03.2019 11:00:00 11,7 5,9 15 8 - - SW 1022,4 10 0,0
20.03.2019 10:00:00 10,7 6,1 15 8 - - SW 1023,0 10 0,0
20.03.2019 09:00:00 10,0 6,6 9 5 - - SSW 1023,2 10 0,0
20.03.2019 08:00:00 8,6 5,5 11 6 - - S 1022,8 10 0,0
20.03.2019 07:00:00 7,7 5,0 8 4 - - S 1022,6 10 0,0
20.03.2019 06:00:00 7,7 5,5 13 7 - - SSW 1022,0 10 0,0
20.03.2019 05:00:00 7,5 6,5 13 7 - - WSW 1021,5 10 0,0
20.03.2019 04:00:00 8,2 6,2 21 11 - - WSW 1021,2 10 0,0
20.03.2019 03:00:00 8,4 4,2 22 12 - - SW 1020,4 10 0,0
20.03.2019 02:00:00 8,1 4,3 16 9 - - SW 1020,3 10 0,0
20.03.2019 01:00:00 7,6 3,8 18 10 - - WSW 1020,4 10 0,0
20.03.2019 00:00:00 8,9 4,1 24 13 - - WSW 1020,1 10 0,0
19.03.2019 23:00:00 9,2 4,5 29 16 - - W 1019,6 10 0,0
19.03.2019 22:00:00 9,6 6,0 16 9 - - WSW 1019,4 10 0,0
19.03.2019 21:00:00 10,3 6,7 13 7 - - W 1018,1 10 0,0
19.03.2019 20:00:00 10,4 7,1 24 13 - - WSW 1017,5 10 0,0
19.03.2019 19:00:00 10,2 6,8 22 12 50 27 WSW 1016,9 10 0,0
19.03.2019 18:00:00 11,4 7,1 39 21 54 29 WSW 1016,1 10 0,0
19.03.2019 17:00:00 12,8 7,7 22 12 46 25 WSW 1015,5 10 0,0
19.03.2019 16:00:00 12,8 7,8 31 17 48 26 WSW 1015,3 10 0,0
19.03.2019 15:00:00 12,9 7,4 35 19 52 28 WSW 1015,0 10 0,0
19.03.2019 14:00:00 13,0 7,3 34 18 46 25 WSW 1014,8 10 0,0
19.03.2019 13:00:00 13,6 6,3 31 17 - - SW 1014,8 10 0,0
19.03.2019 12:00:00 13,2 6,7 22 12 - - SW 1015,1 40 0,0
19.03.2019 11:00:00 10,2 6,1 18 10 - - SW 1016,0 10 0,0
19.03.2019 10:00:00 9,5 5,6 15 8 - - SSW 1016,3 10 0,0
19.03.2019 09:00:00 8,6 5,8 15 8 - - SSW 1016,6 10 0,0
19.03.2019 08:00:00 8,1 5,4 11 6 - - SSW 1017,1 10 0,0
19.03.2019 07:00:00 6,5 4,5 15 8 - - SW 1017,3 10 0,0
19.03.2019 06:00:00 6,3 4,2 5 3 - - SSW 1017,1 10 0,0
19.03.2019 05:00:00 5,4 3,6 9 5 - - SW 1017,4 10 0,0
19.03.2019 04:00:00 3,4 1,9 9 5 - - S 1017,6 10 0,0
19.03.2019 03:00:00 2,5 1,1 5 3 - - S 1018,1 10 0,0
19.03.2019 02:00:00 1,9 1,2 8 4 - - SSW 1018,5 10 0,0
19.03.2019 01:00:00 2,2 1,5 9 5 - - SSW 1018,8 10 0,0
19.03.2019 00:00:00 2,9 2,4 8 4 - - SSW 1018,8 10 0,0
18.03.2019 23:00:00 1,6 0,3 9 5 - - S 1018,8 10 0,0
18.03.2019 22:00:00 3,0 1,0 8 4 - - S 1018,6 10 0,0
18.03.2019 21:00:00 4,3 1,9 9 5 - - S 1018,6 10 0,0
18.03.2019 20:00:00 4,5 1,9 8 4 - - SSW 1018,1 10 0,0
18.03.2019 19:00:00 6,5 3,6 8 4 - - SSE 1017,6 10 0,0
18.03.2019 18:00:00 7,3 3,9 5 3 - - ESE 1017,2 10 0,0
18.03.2019 17:00:00 7,6 2,9 13 7 - - E 1016,6 10 0,0
18.03.2019 16:00:00 7,6 2,7 15 8 - - E 1016,4 10 0,0
18.03.2019 15:00:00 7,1 1,7 16 9 - - E 1016,1 10 0,0
18.03.2019 14:00:00 7,6 2,8 13 7 - - NE 1015,7 10 0,0
18.03.2019 13:00:00 6,8 1,5 11 6 - - NE 1015,5 10 0,0
18.03.2019 12:00:00 9,6 1,9 8 4 - - WSW 1015,2 10 0,0
18.03.2019 11:00:00 8,5 1,1 8 4 - - SSW 1015,2 10 0,0
18.03.2019 10:00:00 7,1 1,6 13 7 - - SW 1014,7 10 0,0
18.03.2019 09:00:00 4,6 0,7 8 4 - - S 1014,2 10 0,0
18.03.2019 08:00:00 1,6 -0,5 8 4 - - S 1013,7 30 0,0
18.03.2019 07:00:00 1,2 -1,2 13 7 - - WSW 1013,1 10 0,0
18.03.2019 06:00:00 0,4 -2,0 13 7 - - SW 1012,8 10 0,0
18.03.2019 05:00:00 1,9 -1,9 18 10 - - WSW 1012,6 10 0,0
18.03.2019 04:00:00 0,9 -1,7 16 9 - - WSW 1012,5 10 0,0
18.03.2019 03:00:00 0,8 -1,0 18 10 - - WSW 1012,3 10 0,0
18.03.2019 02:00:00 1,3 -1,1 18 10 - - WSW 1011,9 10 0,0
18.03.2019 01:00:00 3,7 0,5 16 9 - - W 1011,7 25 0,0
18.03.2019 00:00:00 3,9 0,5 24 13 - - W 1011,1 10 0,0
17.03.2019 23:00:00 4,3 0,8 22 12 - - WNW 1010,4 10 0,0
17.03.2019 22:00:00 4,6 0,3 28 15 48 26 NW 1010,0 25 0,0
17.03.2019 21:00:00 4,6 0,6 28 15 - - WNW 1009,0 10 0,0
17.03.2019 20:00:00 5,2 0,9 28 15 46 25 WNW 1008,6 10 0,0
17.03.2019 19:00:00 5,5 -0,5 34 18 46 25 NW 1007,1 10 0,0
17.03.2019 18:00:00 6,0 -0,7 31 17 48 26 NW 1005,6 10 0,0
17.03.2019 17:00:00 6,4 0,8 31 17 57 31 NW 1004,4 10 0,0
17.03.2019 16:00:00 6,9 2,4 26 14 54 29 NW 1002,8 10 0,0
17.03.2019 15:00:00 5,4 2,5 41 22 54 29 NW 1001,7 10 1,2
17.03.2019 14:00:00 6,4 2,4 31 17 59 32 N 1000,1 10 0,0
17.03.2019 13:00:00 6,3 2,8 29 16 48 26 NNW 998,6 10 0,0
17.03.2019 12:00:00 5,9 3,6 29 16 55 30 NNW 996,6 10 0,4
17.03.2019 11:00:00 5,2 3,2 35 19 48 26 WNW 995,1 10 0,2
17.03.2019 10:00:00 4,8 3,4 29 16 48 26 NW 993,4 30 1,2
17.03.2019 09:00:00 4,3 2,2 31 17 46 25 W 991,8 10 0,0

tt = temperature
td = dewpoint
ff = wind speed
fx = gusts
dd = wind direction
ppp = reduced air pressure
vv = visibility
rr = precipitation

Next stations